Regional Weather Roundup
Issued by NWS Kansas City/Pleasant Hill, MO

Home | Current Version | Previous Version | Graphics & Text | Print | Product List | Glossary Off
Versions: 1 2 3 4 5 6 7 8 9 10 11 12 13 14 15 16 17 18 19 20 21 22 23 24 25 26 27 28 29 30 31 32 33 34 35 36 37 38 39 40 41 42 43 44 45 46 47 48 49 50

000
ASUS43 KEAX 261810
RWREAX

WEATHER ROUNDUP FOR EASTERN KANSAS AND NORTHWEST MISSOURI
NATIONAL WEATHER SERVICE KANSAS CITY/PLEASANT HILL MO
1200 PM CST THU FEB 26 2015

KSZ040-057-103>105-MOZ028-029-037-043-261900-
...KANSAS CITY METROPOLITAN AREA...

CITY           SKY/WX    TMP DP  RH WIND       PRES   REMARKS
K.C. INTL      MOSUNNY   17   1  49 N16G25    30.43R WCI   2
6HR MIN TEMP:   7; 6HR MAX TEMP:  18;

K.C. DOWNTOWN  SUNNY     19   0  43 N14G24    30.45R WCI   6
6HR MIN TEMP:  10; 6HR MAX TEMP:  20;

LEES SUMMIT    SUNNY     18   1  47 N18G26    30.41S WCI   2
6HR MIN TEMP:  10; 6HR MAX TEMP:  18;

OLATHE - IXD   SUNNY     19   1  45 N21G28    30.43R WCI   3
6HR MIN TEMP:   9; 6HR MAX TEMP:  19;

OLATHE - OJC   SUNNY     18   1  47 N12G23    30.40S WCI   5
6HR MIN TEMP:   9; 6HR MAX TEMP:  18;

LAWRENCE       SUNNY     18   0  45 N20G30    30.46S WCI   2

$$

MOZ001>008-011>017-020>025-030>033-038>040-044>046-053-054-261900-
...NORTHERN AND CENTRAL MISSOURI...

CITY           SKY/WX    TMP DP  RH WIND       PRES   REMARKS
ST. JOSEPH     SUNNY     15   0  51 N20G25    30.49R WCI  -2
6HR MIN TEMP:   6; 6HR MAX TEMP:  16;

MOSBY            N/A     18   3  53 N18G25    30.44S WCI   2
WARRENSBURG    SUNNY     21   1  42 N17G23    30.41S WCI   7
WHITEMAN AFB   SUNNY     20   2  45 N20G25    30.38R WCI   4
6HR MIN TEMP:  12; 6HR MAX TEMP:  20;

CLINTON        SUNNY     23   5  46 N20G25    30.39R WCI   8
SEDALIA        MOSUNNY   20   8  60 NW17G24   30.38S WCI   5
6HR MIN TEMP:  14; 6HR MAX TEMP:  20; 6HR PCP: TRACE;

WARSAW         NOT AVBL
MARSHALL       SUNNY     19   7  58 N16G22    30.40R WCI   5
CHILLICOTHE      N/A     15   0  51 N12G21    30.44R WCI   2
6HR MIN TEMP:   9; 6HR MAX TEMP:  16; 6HR PCP:  0.01;

MOBERLY        SUNNY     21   5  49 N14G20    30.36R WCI   8
KIRKSVILLE     SUNNY     15   0  51 NW17G26   30.37R WCI  -1
6HR MIN TEMP:   8; 6HR MAX TEMP:  15;


$$

MOZ041-047>049-056>058-063>065-088>090-097-261900-
...EASTERN AND SOUTHERN MISSOURI...

CITY           SKY/WX    TMP DP  RH WIND       PRES   REMARKS
ST. LOUIS INTL LGT SNOW  22  14  71 NW14      30.26R WCI   9
6HR MIN TEMP:  20; 6HR MAX TEMP:  26; 6HR PCP:  0.02;

SPIRIT OF STL  LGT SNOW  22  14  71 N15       30.27R WCI   9
COLUMBIA       MOSUNNY   21  11  65 N13       30.32R WCI   9
JEFFERSON CITY CLOUDY    22   9  57 NW13      30.34R WCI  10
MEXICO         SUNNY     19  12  73 NW18      30.32R WCI   4
HANNIBAL       SUNNY     19   3  49 N15G21    30.33S WCI   5
ROLLA          FLURRIES  19  12  74 NW16      30.25R WCI   4
OSAGE BEACH    CLOUDY    19   9  63 NW10G22   30.32R WCI   8
SPRINGFIELD    MOSUNNY   23   9  55 NW18G25   30.29R WCI   9
BRANSON        PTSUNNY   25  12  58 N16G22    30.28R WCI  12
NEVADA         SUNNY     23   3  42 N15G25    30.40S WCI  10
JOPLIN         SUNNY     24   6  46 N17G25    30.38S WCI  11
WEST PLAINS    CLOUDY    23  13  65 NW14G23   30.23R WCI  11

$$

IAZ060-094-KSZ022-034>040-054-083-096-NEZ052-066-093-261900-
...KANSAS...SOUTHEAST NEBRASKA AND IOWA...

CITY           SKY/WX    TMP DP  RH WIND       PRES   REMARKS
TOPEKA         SUNNY     19   1  45 N15G25    30.48S WCI   5
6HR MIN TEMP:   9; 6HR MAX TEMP:  19;

MANHATTAN      SUNNY     17  -1  45 N14G25    30.50R WCI   3
EMPORIA        SUNNY     19   1  45 N18G25    30.43S WCI   4
CHANUTE        FAIR      22   4  46 N15       30.43R WCI   9
WICHITA        MOSUNNY   21  -3  35 N17G28    30.44F WCI   7
OMAHA          MOSUNNY    7  -1  70 N17       30.53R WCI -12
LINCOLN        MOSUNNY   12   0  58 N17G28    30.52S WCI  -5
FALLS CITY     PTSUNNY   14  -1  51 N15       30.49S WCI  -1
LAMONI         SUNNY      9  -4  55 N15       30.42R WCI  -8
DES MOINES     SUNNY      9  -5  53 N14       30.45R WCI  -7

$$




USA.gov is the U.S. government's official web portal to all federal, state and local government web resources and services.